Date,TemperatureHighF,TemperatureAvgF,TemperatureLowF,DewpointHighF,DewpointAvgF,DewpointLowF,HumidityHigh,HumidityAvg,HumidityLow,PressureMaxIn,PressureMinIn,WindSpeedMaxMPH,WindSpeedAvgMPH,GustSpeedMaxMPH,PrecipitationSumIn
2012-1-1,78.0,67.5,58.2,64.4,60.8,55.9,93,80,58,30.28,30.16,5,1,0,0.01
2012-1-2,74.1,63.1,53.2,66.9,55.9,45.1,96,78,57,30.25,30.10,8,3,0,0.00
2012-1-3,58.1,50.9,40.2,45.8,34.4,24.8,85,55,32,30.39,30.21,11,2,0,0.00
2012-1-4,63.3,47.7,34.8,39.7,32.3,25.8,72,57,34,30.43,30.30,4,0,0,0.00
2012-1-5,69.1,53.1,38.3,50.5,41.0,32.0,90,66,35,30.34,30.20,4,0,0,0.00
2012-1-6,73.1,57.6,47.0,56.0,50.6,44.8,94,79,47,30.26,30.13,5,1,0,0.00
2012-1-7,74.5,60.9,50.5,56.8,53.1,48.4,93,78,44,30.21,30.12,3,0,0,0.01
2012-1-8,78.7,64.7,53.5,58.7,54.8,50.2,92,73,45,30.25,30.14,5,1,0,0.00
2012-1-9,80.2,67.9,59.0,63.4,59.0,54.5,90,75,48,30.22,30.07,5,1,0,0.00
2012-1-10,78.7,66.7,58.4,63.0,59.6,56.1,93,80,49,30.11,29.96,5,1,0,0.00
2012-1-11,73.7,68.8,62.8,68.2,64.5,59.6,91,86,79,29.99,29.80,9,3,0,0.01
2012-1-12,76.3,68.2,59.9,65.2,61.5,57.9,94,80,58,30.00,29.87,7,2,0,0.00
2012-1-13,71.3,63.2,53.2,61.9,54.5,44.0,94,74,53,30.24,30.00,4,2,0,0.00
2012-1-14,62.5,54.2,46.3,45.7,38.9,30.5,78,58,30,30.38,30.23,2,0,0,0.00
2012-1-15,73.6,56.0,40.7,48.4,40.0,32.5,82,58,32,30.47,30.34,3,0,0,0.00
2012-1-16,74.1,61.4,49.7,56.6,49.9,41.1,79,67,52,30.44,30.30,7,1,0,0.00
2012-1-17,76.2,64.2,53.2,58.9,55.5,49.9,91,75,54,30.33,30.17,5,1,0,0.00
2012-1-18,76.3,66.3,57.4,64.1,59.5,54.7,92,80,60,30.17,30.00,5,1,0,0.00
2012-1-19,75.3,65.3,57.4,62.7,51.7,38.2,92,66,27,30.18,30.02,4,1,0,0.00
2012-1-20,78.3,64.9,56.1,57.6,53.2,46.1,87,68,42,30.22,30.10,5,1,0,0.00
2012-1-21,76.7,66.4,57.4,61.2,58.1,54.2,92,76,50,30.16,30.05,5,1,0,0.00
2012-1-22,80.2,67.8,57.9,63.4,58.7,54.7,93,75,42,30.15,30.06,4,1,0,0.00
2012-1-23,80.3,70.3,61.5,67.1,62.8,58.3,92,78,54,30.13,30.05,6,2,0,0.00
2012-1-24,83.7,71.2,62.0,68.0,63.6,59.3,93,78,47,30.18,30.07,5,1,0,0.00
2012-1-25,82.8,72.1,65.0,67.7,64.5,61.6,93,78,49,30.17,30.05,8,2,0,0.01
2012-1-26,82.0,72.6,65.7,68.8,65.9,63.3,93,81,57,30.10,29.97,9,3,0,0.01
2012-1-27,74.7,70.7,66.8,70.0,66.2,62.8,92,86,75,30.07,29.96,10,3,0,0.21
2012-1-28,75.8,67.6,62.9,64.1,60.3,57.0,87,78,64,30.18,30.07,5,2,0,0.00
2012-1-29,77.5,66.7,59.9,57.6,54.7,50.9,86,67,44,30.27,30.16,5,0,0,0.00
2012-2-1,68.8,67.2,64.9,63.4,62.0,60.9,87,83,81,30.17,30.15,0,0,0,0.00
2012-2-2,78.4,69.5,61.8,68.9,64.0,59.1,94,83,65,30.17,30.07,5,1,0,0.01
2012-2-3,78.0,71.4,65.6,67.5,65.1,62.8,92,81,66,30.20,30.10,7,1,0,0.00
2012-2-4,82.3,73.1,67.2,67.5,65.3,63.3,89,78,56,30.16,30.03,10,4,0,0.00
2012-2-5,78.0,72.2,66.5,69.4,66.7,64.4,93,83,69,30.08,29.98,4,1,0,0.01
2012-2-6,78.1,70.6,67.4,70.7,66.5,63.8,93,87,73,30.07,29.97,7,1,0,0.40
2012-2-7,80.3,72.5,68.0,70.8,67.6,65.3,94,85,67,30.05,29.95,4,0,0,0.00
2012-2-8,80.3,70.1,64.4,67.5,63.7,57.4,93,81,60,30.11,29.99,5,1,0,0.01
2012-2-9,77.6,65.9,59.0,63.4,57.7,53.2,83,75,59,30.15,30.04,2,0,0,0.00
2012-2-10,82.0,70.7,64.3,70.5,65.6,61.0,92,84,65,30.09,29.89,7,2,0,0.01
2012-2-11,71.1,64.1,55.0,65.1,56.8,44.3,93,78,58,30.15,29.90,10,5,0,0.17
2012-2-12,59.1,49.5,41.9,44.4,30.9,24.1,70,50,30,30.34,30.14,6,2,0,0.00
2012-2-13,70.4,54.2,39.7,53.8,42.7,30.8,79,66,48,30.28,30.10,4,1,0,0.00
2012-2-14,76.2,65.6,55.7,61.7,56.7,50.8,92,74,53,30.14,30.06,7,2,0,0.00
2012-2-15,80.8,68.6,59.0,63.9,60.8,56.7,93,78,50,30.21,30.10,4,1,0,0.00
2012-2-16,79.4,69.5,60.7,66.9,63.0,58.7,94,81,58,30.19,30.08,7,2,0,0.00
2012-2-17,78.4,71.0,65.2,69.2,65.7,62.9,94,84,68,30.10,30.00,6,2,0,0.01
2012-2-18,78.4,71.3,64.7,68.7,66.2,62.6,94,85,69,30.03,29.90,5,2,0,0.00
2012-2-19,79.6,73.4,67.7,73.1,69.1,61.5,93,87,79,29.97,29.86,11,5,0,0.02
2012-2-20,76.3,67.3,59.1,62.3,55.5,50.8,85,67,44,30.19,29.96,8,2,0,0.00
2012-2-21,80.2,66.7,55.5,62.7,57.6,50.6,90,74,47,30.22,30.10,8,1,0,0.00
2012-2-22,77.7,70.5,62.6,66.4,63.3,59.6,91,79,57,30.13,29.96,7,2,0,0.00
2012-2-23,79.8,73.1,68.5,70.5,68.4,66.1,93,86,68,30.01,29.92,8,3,0,0.00
2012-2-24,82.8,75.5,68.7,72.3,69.5,66.9,94,83,60,30.03,29.95,8,3,0,0.01
2012-2-25,78.2,71.0,60.7,70.0,62.4,51.6,93,76,52,30.20,30.01,4,1,0,0.02
2012-2-26,78.5,69.2,59.6,67.4,60.8,49.7,87,75,63,30.25,30.17,8,2,0,0.05
2012-2-27,83.8,74.3,68.5,71.4,68.3,65.4,92,82,59,30.27,30.17,9,2,0,0.34
2012-2-28,86.1,75.0,66.2,71.9,67.6,64.2,95,79,51,30.26,30.14,5,1,0,0.01
2012-2-29,84.7,75.1,67.8,70.8,67.9,65.7,94,79,57,30.22,30.08,6,2,0,0.00
2012-3-1,82.2,74.6,68.3,71.2,68.0,65.3,94,81,60,30.13,30.01,8,2,0,0.01
2012-3-2,81.9,74.9,68.4,71.8,69.4,66.3,94,84,67,30.06,29.95,9,3,0,0.00
2012-3-3,82.1,75.9,70.3,73.5,70.9,68.2,94,85,69,29.97,29.84,11,4,0,0.02
2012-3-4,76.8,67.8,53.7,73.3,53.8,35.2,90,64,34,30.22,29.77,13,8,0,0.14
2012-3-5,74.8,61.2,47.5,54.0,43.0,37.5,83,55,27,30.37,30.22,5,1,0,0.00
2012-3-6,78.7,65.9,51.7,61.5,53.8,43.8,82,67,45,30.38,30.27,11,2,0,0.00
2012-3-7,81.5,71.7,63.2,65.1,61.7,58.3,87,72,54,30.34,30.22,10,3,0,0.00
2012-3-8,82.0,75.8,69.1,69.1,67.5,65.5,90,76,61,30.25,30.13,12,5,0,0.00
2012-3-9,83.0,74.2,67.6,70.0,67.3,65.5,93,80,58,30.20,30.08,6,2,0,0.01
2012-3-10,84.3,75.0,67.4,70.5,67.3,64.4,91,78,52,30.19,30.09,7,1,0,0.01
2012-3-11,84.1,74.4,69.1,68.6,66.9,63.7,91,79,53,30.25,30.15,8,3,0,0.00
2012-3-12,82.4,74.0,67.8,65.7,64.0,58.9,88,72,54,30.27,30.15,9,3,0,0.00
2012-3-13,83.6,73.3,63.4,64.4,61.9,60.0,90,69,46,30.24,30.13,5,1,0,0.00
2012-3-14,84.0,73.5,62.0,66.2,62.6,58.1,88,70,49,30.23,30.10,4,1,0,0.00
2012-3-15,85.8,73.0,63.6,68.7,64.2,60.0,90,75,48,30.22,30.11,11,2,0,0.00
2012-3-16,85.6,74.5,64.6,67.9,64.2,60.3,92,72,43,30.22,30.09,5,1,0,0.00
2012-3-17,84.8,78.7,68.3,66.5,61.2,56.2,88,56,39,30.23,30.10,4,1,0,0.00
2012-3-18,84.4,73.6,62.8,66.8,63.1,58.9,90,71,49,30.23,30.10,9,2,0,0.01
2012-3-19,84.8,74.7,66.7,66.2,62.6,58.8,88,68,43,30.17,30.03,8,2,0,0.00
2012-3-20,83.8,74.5,67.1,67.7,63.4,59.4,87,69,50,30.10,29.99,9,4,0,0.00
2012-3-21,86.3,75.5,67.2,70.5,66.8,62.5,91,76,49,30.12,30.00,9,4,0,0.00
2012-3-22,85.6,76.5,69.7,70.9,68.6,65.9,91,78,53,30.14,30.02,10,3,0,0.01
2012-3-23,84.8,75.8,68.2,68.8,66.4,63.1,90,74,51,30.12,30.01,6,2,0,0.00
2012-3-24,81.6,75.7,69.6,69.1,67.2,63.9,90,76,55,30.05,29.94,7,3,0,0.00
2012-3-25,80.3,75.6,70.6,70.1,67.1,62.0,91,76,55,29.95,29.85,12,6,0,0.29
2012-3-26,83.4,76.8,66.3,64.7,58.1,52.8,90,54,35,30.02,29.92,8,3,0,0.00
2012-3-27,86.4,73.4,62.5,66.5,60.2,55.8,81,64,39,30.16,30.00,8,2,0,0.00
2012-3-28,85.7,74.9,66.1,66.9,62.3,58.8,88,67,41,30.17,30.03,8,3,0,0.17
2012-3-29,84.3,73.2,65.0,66.8,64.2,60.0,93,75,44,30.08,29.96,6,1,0,0.02
2012-3-30,84.5,74.4,66.2,67.6,63.6,59.4,88,70,43,30.07,29.98,6,2,0,0.00
2012-3-31,82.3,74.9,67.5,72.1,68.3,63.6,90,80,69,30.01,29.90,8,3,0,0.00
2012-4-1,84.5,75.1,67.6,69.7,67.3,62.4,94,78,49,29.96,29.87,7,2,0,0.00
2012-4-2,84.6,75.1,66.2,71.2,66.3,62.1,93,76,49,29.94,29.87,9,2,0,0.00
2012-4-3,88.5,75.9,65.8,68.5,64.5,60.0,92,71,39,29.99,29.89,6,1,0,0.00
2012-4-4,85.4,77.1,70.1,72.7,68.5,61.4,91,76,45,29.98,29.83,8,2,0,0.00
2012-4-5,83.0,76.0,69.2,72.9,69.3,66.0,92,81,61,29.92,29.76,10,4,0,0.05
2012-4-6,84.0,78.3,69.0,72.8,67.0,57.7,87,69,50,29.94,29.75,10,5,0,0.00
2012-4-7,83.9,72.1,62.3,66.3,60.5,56.9,85,68,49,30.12,29.94,6,1,0,0.00
2012-4-8,84.6,72.2,60.9,62.3,57.7,54.2,84,62,37,30.16,30.04,8,2,0,0.00
2012-4-9,83.6,73.6,64.0,63.8,60.2,55.0,84,65,39,30.10,29.97,6,2,0,0.00
2012-4-10,83.3,74.7,65.0,66.8,63.4,59.4,86,69,46,30.09,29.97,8,2,0,0.00
2012-4-11,82.9,74.3,66.5,66.3,63.2,60.1,87,70,50,30.07,29.98,8,2,0,0.00
2012-4-12,86.6,74.4,64.1,64.5,61.1,53.8,90,66,41,30.07,29.99,9,2,0,0.00
2012-4-13,85.4,74.9,64.9,69.1,63.0,54.2,89,68,36,30.10,30.00,8,2,0,0.00
2012-4-14,78.5,73.6,68.9,68.1,65.8,63.1,91,77,65,30.20,30.08,14,6,0,0.00
2012-4-15,83.4,75.0,67.3,65.3,62.6,60.5,84,66,50,30.20,30.11,9,5,0,0.00
2012-4-16,84.8,75.4,66.9,65.0,61.9,58.4,80,64,44,30.18,30.09,11,5,0,0.00
2012-4-17,86.8,76.2,66.1,67.7,62.4,58.0,82,64,39,30.16,30.02,8,3,0,0.00
2012-4-18,83.3,76.0,68.7,69.7,66.0,62.1,85,72,56,30.09,29.95,8,3,0,0.00
2012-4-19,83.9,77.1,71.3,71.7,69.2,66.2,91,77,56,30.00,29.87,8,3,0,0.00
2012-4-20,84.7,77.9,71.8,71.9,70.2,67.7,91,78,59,29.93,29.82,8,3,0,0.00
2012-4-21,76.7,71.8,69.0,68.6,66.8,64.5,93,85,70,29.89,29.63,7,4,0,0.39
2012-4-22,79.9,72.4,65.6,68.3,64.7,58.9,93,78,61,29.78,29.56,13,5,0,1.27
2012-4-23,77.1,70.5,65.2,59.0,54.4,51.0,70,57,47,29.94,29.77,10,5,0,0.00
2012-4-24,73.3,65.9,56.9,54.5,47.7,39.5,85,54,36,30.05,29.92,8,3,0,0.00
2012-4-25,79.1,72.3,63.7,57.5,52.9,47.5,79,52,36,30.13,30.07,6,2,0,0.00
2012-4-26,85.1,71.8,60.8,63.9,59.7,55.8,90,68,41,30.15,30.04,5,2,0,0.00
2012-4-27,76.5,66.9,63.8,67.0,62.4,60.8,92,86,61,30.12,30.07,2,0,0,0.00
2012-4-28,88.5,78.6,73.0,73.3,71.1,68.0,90,79,51,30.08,30.00,9,2,0,0.11
2012-4-29,79.2,74.7,69.7,71.3,69.2,66.6,91,83,75,30.08,29.99,8,2,0,0.00
2012-4-30,84.6,75.3,69.3,70.9,67.6,65.1,88,78,59,30.06,29.98,10,2,0,0.00
2012-5-2,88.1,82.5,75.7,73.5,70.3,67.8,81,67,54,30.07,29.98,11,5,0,0.00
2012-5-3,88.1,79.0,71.0,71.9,69.7,66.4,91,74,49,30.09,30.00,8,4,0,0.00
2012-5-4,88.3,79.1,72.0,71.8,69.5,66.1,90,74,49,30.09,29.97,6,2,0,0.00
2012-5-5,87.1,78.7,72.2,71.3,68.7,66.2,87,72,52,30.03,29.92,8,2,0,0.00
2012-5-6,85.4,78.4,72.6,72.1,70.2,68.4,91,77,59,29.99,29.90,6,2,0,0.00
2012-5-7,84.6,78.1,72.4,71.9,70.2,68.6,91,77,60,29.94,29.85,7,2,0,0.00
2012-5-8,85.5,78.2,72.2,73.3,70.8,68.8,92,79,61,29.93,29.85,7,2,0,0.00
2012-5-9,85.7,79.2,73.2,74.7,72.2,69.7,93,80,64,29.91,29.81,9,3,0,0.02
2012-5-10,86.9,79.2,74.2,73.9,71.4,65.6,92,78,59,29.93,29.80,9,3,0,0.00
2012-5-11,92.6,77.6,66.9,75.4,67.6,61.6,93,73,40,30.09,29.90,8,2,0,2.86
2012-5-12,89.9,80.0,72.4,72.6,69.3,67.0,87,71,50,30.14,30.05,10,4,0,0.00
2012-5-13,89.1,76.9,69.1,73.1,68.1,65.0,92,76,47,30.12,29.99,8,2,0,1.64
2012-5-14,87.5,79.0,71.3,73.3,71.1,67.7,93,78,56,30.07,29.92,6,2,0,0.01
2012-5-15,86.8,78.1,73.6,74.8,71.5,67.3,91,81,57,30.02,29.94,8,1,0,0.22
2012-5-16,81.2,76.4,71.3,74.1,71.0,67.2,92,84,68,30.03,29.91,6,1,0,0.60
2012-5-17,84.0,77.2,71.9,74.6,71.8,69.2,94,84,67,29.97,29.88,7,2,0,0.06
2012-5-18,86.7,79.4,72.1,73.3,71.2,68.7,90,77,60,29.95,29.87,6,2,0,0.00
2012-5-19,90.0,78.6,71.7,73.1,70.4,66.2,92,78,49,29.97,29.85,9,2,0,0.00
2012-5-20,89.2,78.5,69.6,73.9,70.0,66.2,93,77,48,29.98,29.88,6,1,0,0.01
2012-5-21,88.6,79.2,69.9,72.6,68.1,64.5,88,70,47,30.00,29.91,6,2,0,0.00
2012-5-22,89.0,79.3,68.5,72.6,65.1,58.3,87,64,36,29.98,29.88,6,1,0,0.00
2012-5-23,92.8,80.6,73.1,74.1,71.7,69.1,91,76,49,29.93,29.80,11,2,0,0.25
2012-5-24,90.9,81.1,73.2,75.6,73.1,70.4,92,78,58,29.92,29.81,9,2,0,0.00
2012-5-25,95.3,82.0,74.8,77.1,73.2,71.4,90,76,47,30.03,29.87,8,1,0,0.57
2012-5-26,92.8,82.3,74.7,76.0,72.8,68.0,93,75,45,30.06,29.92,6,1,0,0.04
2012-5-27,88.0,84.2,80.6,75.9,74.5,71.6,82,73,60,29.95,29.86,8,5,0,0.00
2012-5-28,87.6,83.0,79.6,76.0,74.6,69.2,84,76,56,29.96,29.86,9,4,0,0.00
2012-5-29,87.8,82.3,75.7,76.3,73.8,70.9,91,76,59,29.97,29.89,8,3,0,0.00
2012-5-30,88.2,82.4,78.1,75.4,73.8,71.3,87,76,59,29.94,29.84,9,3,0,0.00
2012-5-31,86.3,80.5,74.9,76.3,73.8,71.6,93,80,67,29.95,29.86,6,2,0,0.00
2012-6-1,83.4,78.3,74.4,76.7,73.0,69.3,93,84,74,29.95,29.86,9,3,0,0.53
2012-6-2,86.4,80.5,75.3,75.7,73.4,69.4,94,80,59,29.99,29.89,7,2,0,0.00
2012-6-3,90.0,81.5,73.9,75.5,71.9,67.3,93,74,52,30.05,29.95,6,2,0,0.01
2012-6-4,86.8,81.0,74.3,76.1,73.7,70.0,92,79,62,30.01,29.88,8,2,0,0.00
2012-6-5,87.4,82.8,80.3,77.0,75.9,74.4,88,80,67,29.91,29.82,8,3,0,0.00
2012-6-6,85.1,81.7,74.5,77.5,75.5,70.1,89,82,73,29.94,29.85,9,2,0,0.07
2012-6-7,87.4,82.6,78.5,77.4,75.6,70.8,88,80,67,29.97,29.90,8,3,0,0.00
2012-6-8,87.1,81.5,75.8,79.8,76.4,72.4,91,85,72,29.98,29.89,8,2,0,0.14
2012-6-9,90.2,81.0,71.8,77.6,73.9,69.3,94,80,62,30.04,29.91,10,3,0,1.08
2012-6-10,92.1,82.2,76.9,79.8,76.1,74.0,94,83,61,30.12,29.98,6,1,0,0.07
2012-6-11,93.0,84.0,76.2,77.6,74.9,71.1,92,75,55,30.12,30.03,7,2,0,0.00
2012-6-12,91.3,81.9,73.9,75.9,71.8,69.2,90,73,51,30.08,29.94,6,2,0,0.42
2012-6-13,89.3,82.2,74.3,76.4,73.5,69.2,89,76,59,29.99,29.89,7,2,0,0.01
2012-6-14,90.4,83.0,76.5,77.7,74.7,68.8,92,77,59,30.00,29.89,9,2,0,0.01
2012-6-15,90.5,80.3,72.6,76.6,72.1,68.8,89,77,52,30.03,29.91,5,1,0,0.05
2012-6-16,90.7,80.7,73.8,74.1,71.6,68.6,90,75,54,30.03,29.94,7,1,0,0.00
2012-6-17,89.2,80.2,70.4,71.7,68.5,64.1,92,70,48,30.04,29.91,5,1,0,0.01
2012-6-18,90.2,80.9,72.1,70.4,67.6,64.5,86,65,44,30.02,29.93,8,2,0,0.00
2012-6-19,86.1,79.7,72.5,72.4,69.9,67.2,85,72,59,30.03,29.95,6,2,0,0.00
2012-6-20,83.7,79.1,75.4,76.1,73.3,70.3,92,82,74,30.00,29.92,7,3,0,0.15
2012-6-21,87.9,79.9,75.5,75.6,73.7,72.2,90,82,63,29.97,29.85,9,4,0,0.02
2012-6-22,82.4,77.3,74.6,75.6,73.5,72.1,92,88,77,29.93,29.82,6,2,0,0.18
2012-6-23,79.1,71.2,72.7,76.5,63.5,-99.9,93,92,89,29.95,29.84,8,4,0,0.86
2012-6-24,83.6,46.7,74.5,75.1,0.7,-99.9,91,48,75,29.93,29.76,11,7,0,1.74
2012-6-25,84.0,81.2,74.4,73.6,71.6,65.6,76,73,70,29.79,29.70,14,9,0,0.38
2012-6-26,85.3,81.5,76.9,71.5,66.0,60.1,70,60,50,29.74,29.65,13,9,0,0.26
2012-6-27,87.5,80.6,76.2,69.2,58.1,50.8,55,46,39,30.00,29.73,10,5,0,0.33
2012-6-28,90.1,81.2,73.2,74.3,58.9,46.5,61,47,37,30.08,29.99,4,1,0,0.04
2012-6-29,89.9,81.7,73.8,73.1,58.5,44.8,61,46,34,30.06,29.95,6,1,0,0.01
2012-6-30,89.0,82.3,75.7,70.0,55.6,45.3,55,40,32,30.02,29.94,7,2,0,0.00
2012-7-1,90.8,72.0,76.7,73.5,35.6,-99.9,57,38,30,30.09,29.99,5,2,0,0.01
2012-7-2,91.6,83.2,78.2,74.2,54.9,44.7,57,39,29,30.11,29.99,6,2,0,0.00
2012-7-3,93.4,81.8,75.9,74.7,51.8,42.2,57,36,28,30.08,29.98,9,1,0,0.21
2012-7-4,90.1,82.0,76.9,70.7,50.4,42.2,53,34,28,30.09,30.00,9,1,0,0.00
2012-7-5,91.0,80.6,75.5,71.7,47.6,40.4,54,32,26,30.07,29.98,7,1,0,0.21
2012-7-6,91.9,80.0,74.3,72.9,45.8,38.2,54,31,26,30.05,29.99,12,1,0,1.20
2012-7-7,94.2,81.6,74.9,75.0,49.3,38.0,55,34,24,30.08,30.00,11,1,0,0.40
2012-7-8,96.5,68.4,76.7,75.4,22.7,-99.9,53,29,23,30.09,29.98,9,1,0,0.03
2012-7-9,91.4,81.5,77.4,72.1,45.1,37.8,54,29,23,30.05,29.95,6,1,0,0.23
2012-7-10,91.7,80.9,75.3,71.6,44.2,36.7,52,28,20,30.04,29.94,7,2,0,0.40
2012-7-11,87.1,78.8,74.4,54.7,39.1,36.2,34,24,21,30.05,29.95,5,1,0,0.36
2012-7-12,84.7,80.6,77.4,49.4,39.8,37.0,30,23,21,30.03,29.94,6,1,0,0.07
2012-7-13,88.7,61.3,73.5,62.0,10.6,-99.9,41,23,22,30.04,29.96,10,1,0,2.14
2012-7-14,90.2,84.0,79.3,68.0,50.1,37.3,49,32,20,30.08,29.99,10,3,0,0.00
2012-7-15,88.6,80.5,76.3,66.4,42.7,36.7,48,27,20,30.10,30.02,8,2,0,0.38
2012-7-16,88.1,78.4,74.0,88.1,56.9,37.8,100,55,24,30.08,29.97,6,1,0,0.91
2012-7-17,83.8,54.8,75.1,82.9,20.6,-99.9,97,63,79,30.04,29.97,2,1,0,0.64
2012-7-18,90.3,72.0,76.0,90.0,46.6,-99.9,100,64,35,30.12,30.00,5,2,0,0.00
2012-7-19,82.5,51.9,79.8,55.7,-0.7,-99.9,43,30,38,30.15,30.11,2,0,0,0.02
2012-7-21,94.5,84.9,77.5,82.3,63.6,50.2,68,50,36,30.07,30.01,6,2,0,0.03
2012-7-28,88.9,85.3,80.2,76.1,74.1,71.3,83,69,59,30.11,30.02,7,2,0,0.09
2012-7-29,90.0,82.4,77.6,76.5,75.1,72.1,93,80,61,30.09,30.01,6,1,0,0.02
2012-7-30,91.2,84.7,77.9,76.9,74.8,72.0,93,73,55,30.06,29.99,5,2,0,0.00
2012-7-31,90.5,83.9,77.4,77.5,75.0,72.7,94,76,57,30.05,29.97,7,2,0,0.00
2012-8-1,90.7,83.4,77.7,79.1,74.7,68.8,93,76,49,30.04,29.94,7,2,0,0.00
2012-8-2,91.3,83.8,77.0,77.1,74.0,69.9,96,74,53,30.01,29.92,6,1,0,0.04
2012-8-3,91.7,81.9,76.4,75.7,73.3,67.7,90,76,53,30.02,29.93,6,1,0,0.51
2012-8-4,93.0,82.5,74.8,79.3,74.4,71.3,94,78,51,30.05,29.95,9,1,0,0.35
2012-8-5,90.4,80.1,73.7,77.5,75.0,71.9,98,86,59,30.08,30.00,12,2,0,2.28
2012-8-6,91.3,79.2,75.0,78.0,75.4,73.5,98,89,58,30.07,29.98,8,1,0,2.12
2012-8-7,92.4,83.7,75.9,79.4,76.3,74.1,96,80,57,30.03,29.95,7,2,0,0.00
2012-8-8,96.4,84.8,76.2,78.7,75.2,69.1,93,75,46,30.05,29.95,8,2,0,0.27
2012-8-9,94.0,82.2,76.6,78.8,74.9,71.3,95,80,49,30.02,29.90,7,1,0,0.13
2012-8-10,92.6,80.4,74.9,77.2,73.9,70.4,96,83,51,30.00,29.91,10,1,0,0.37
2012-8-11,87.6,78.9,75.7,77.2,74.9,72.8,96,88,67,30.03,29.94,5,1,0,0.17
2012-8-12,81.8,78.0,75.6,78.3,75.4,73.0,97,92,81,30.07,29.96,4,1,0,0.16
2012-8-13,89.3,82.0,76.0,79.0,75.8,73.8,96,83,63,30.08,30.00,5,1,0,0.56
2012-8-14,91.7,80.5,76.5,77.6,74.8,72.4,95,83,58,30.06,29.95,6,1,0,0.01
2012-8-15,92.8,82.5,76.1,79.7,75.2,71.6,93,80,57,30.05,29.96,5,1,0,0.00
2012-8-16,89.9,82.9,77.0,78.6,76.4,72.2,94,81,61,30.09,29.98,6,1,0,0.59
2012-8-17,87.6,82.2,78.6,78.8,77.1,73.0,93,85,70,30.05,29.95,5,1,0,0.08
2012-8-18,88.9,81.1,76.0,79.5,76.1,73.4,96,85,64,30.01,29.91,6,1,0,0.47
2012-8-19,89.7,83.4,77.3,78.9,76.3,72.7,96,80,61,30.01,29.93,7,2,0,0.02
2012-8-20,90.4,84.1,77.4,79.3,76.3,72.6,95,78,64,30.02,29.91,7,3,0,0.01
2012-8-21,90.6,83.0,73.8,78.1,75.3,69.9,96,79,58,30.12,29.96,9,3,0,0.60
2012-8-22,74.5,74.1,73.6,73.3,72.7,72.2,97,95,95,30.12,30.02,6,2,0,0.20
2012-9-5,87.5,82.4,74.3,76.8,74.5,71.5,94,78,67,30.02,29.91,8,4,0,0.04
2012-9-6,88.7,79.7,73.3,77.7,74.0,70.0,97,84,61,30.02,29.94,7,2,0,0.39
2012-9-7,89.0,81.8,75.1,78.2,74.3,71.8,95,79,58,30.00,29.90,6,2,0,0.00
2012-9-8,88.7,82.7,76.9,77.8,75.2,72.5,96,79,60,29.98,29.89,7,2,0,0.00
2012-9-9,88.3,83.8,80.1,77.3,76.2,74.8,88,78,68,29.98,29.90,9,4,0,0.17
2012-9-10,86.8,81.9,78.8,78.5,76.2,74.1,92,83,70,30.01,29.93,8,2,0,0.11
2012-9-11,90.7,81.1,75.2,77.2,74.6,72.5,94,81,61,30.09,29.98,4,1,0,0.00
2012-9-12,92.6,82.4,75.2,76.0,73.4,69.8,92,76,49,30.09,29.99,3,0,0,0.00
2012-9-13,85.4,78.7,75.0,76.3,74.0,70.1,95,86,66,30.07,29.97,11,1,0,0.69
2012-9-14,92.5,81.5,73.8,77.4,73.5,69.8,96,78,49,30.04,29.93,5,1,0,0.01
2012-9-15,90.8,80.5,76.2,76.9,75.0,73.3,95,84,59,30.05,29.96,9,1,0,0.39
2012-9-16,87.1,78.3,73.6,77.5,74.4,71.8,98,88,61,30.04,29.95,7,1,0,1.29
2012-9-17,87.3,79.7,74.3,77.0,74.7,72.9,97,85,68,30.00,29.90,7,2,0,0.04
2012-9-18,87.6,79.8,73.9,78.9,75.6,71.9,97,87,73,29.98,29.89,10,3,0,0.88
2012-9-19,88.4,80.7,74.7,76.3,74.3,71.2,98,82,62,30.05,29.92,5,1,0,0.04
2012-9-20,89.4,79.7,73.2,77.6,74.0,68.2,96,84,54,30.04,29.91,9,1,0,0.88
2012-9-21,88.0,76.6,73.0,78.2,73.1,70.3,96,89,68,30.00,29.89,4,0,0,0.92
2012-9-22,83.9,75.9,72.4,77.0,73.5,70.9,98,92,74,30.03,29.94,3,0,0,1.32
2012-9-23,90.0,79.8,73.2,77.3,72.6,68.0,98,81,51,30.07,29.99,4,0,0,0.00
2012-9-24,87.7,78.8,73.8,75.8,71.3,65.6,96,79,60,30.09,30.00,4,0,0,0.02
2012-9-25,86.5,78.8,72.1,73.9,69.4,65.2,82,73,61,30.08,29.99,2,0,0,0.00
2012-9-26,89.3,80.3,75.8,75.6,71.6,67.1,86,76,55,30.09,30.01,3,0,0,0.00
2012-9-27,94.6,82.1,72.8,77.2,72.9,68.2,95,76,45,30.10,29.97,3,0,0,0.00
2012-9-28,91.3,81.8,74.1,77.9,73.8,69.3,98,78,50,30.04,29.91,4,1,0,0.00
2012-9-29,89.3,81.6,75.0,76.4,74.3,70.9,96,80,57,29.98,29.84,7,1,0,0.00
2012-9-30,89.4,82.0,75.2,77.1,74.4,72.1,96,79,59,29.91,29.78,6,1,0,0.00
2012-10-1,86.8,80.9,75.5,77.9,75.8,73.3,96,85,69,29.83,29.75,6,3,0,0.12
2012-10-2,86.9,78.6,75.4,78.8,75.4,73.8,97,90,72,30.04,29.83,7,3,0,0.83
2012-10-3,90.0,80.2,75.3,78.8,75.6,72.7,97,87,64,30.16,30.02,8,2,0,0.27
2012-10-4,91.0,79.2,73.7,79.1,75.2,70.9,96,88,60,30.15,30.06,9,1,0,1.21
2012-10-5,90.9,80.3,74.2,79.6,75.0,72.6,98,85,57,30.10,29.92,5,1,0,0.09
2012-10-6,88.2,80.4,74.6,78.1,74.3,71.1,97,83,61,29.99,29.84,3,0,0,0.16
2012-10-7,91.0,78.6,74.2,77.7,74.2,72.7,97,88,59,29.98,29.88,9,0,0,1.42
2012-10-8,87.9,79.8,74.6,78.2,74.8,71.3,98,86,62,30.02,29.91,8,1,0,0.01
2012-10-9,92.0,80.9,72.7,76.1,73.6,71.0,95,80,54,30.03,29.95,4,1,0,0.00
2012-10-10,90.1,81.3,73.6,76.5,72.9,70.3,94,77,53,30.08,29.99,4,0,0,0.00
2012-10-11,87.7,78.5,69.5,71.6,68.4,66.5,91,73,50,30.14,30.05,2,0,0,0.03
2012-10-12,88.1,77.5,68.1,70.1,66.7,62.6,93,71,46,30.15,30.06,2,0,0,0.00
2012-10-13,88.0,77.0,68.6,72.4,67.8,64.2,90,75,52,30.14,30.03,3,0,0,0.00
2012-10-14,88.4,79.2,69.9,74.1,71.7,68.1,95,79,59,30.08,29.94,3,0,0,0.01
2012-10-15,88.3,80.1,73.0,77.2,73.9,70.4,96,82,56,29.95,29.79,5,0,0,0.01
2012-10-16,89.0,79.0,72.7,74.6,71.1,64.3,93,78,45,29.87,29.77,6,1,0,0.00
2012-10-17,84.1,77.6,73.8,76.0,72.0,69.9,94,84,65,29.88,29.80,5,1,0,0.00
2012-10-18,85.6,78.4,72.4,75.8,73.1,69.9,94,84,68,29.89,29.79,6,2,0,0.01
2012-10-19,86.7,79.7,74.7,77.3,74.4,72.3,97,85,66,29.89,29.81,5,1,0,0.09
2012-10-20,88.9,78.5,71.4,75.6,69.6,61.1,96,76,47,29.97,29.85,5,0,0,0.00
2012-10-21,86.1,74.1,63.4,65.8,59.9,53.7,79,63,41,30.03,29.93,4,0,0,0.01
2012-10-22,85.4,72.5,65.3,69.0,64.3,61.7,90,77,53,30.05,29.96,3,0,0,0.00
2012-10-23,87.7,79.2,73.1,71.3,68.8,66.8,83,72,51,29.99,29.90,2,0,0,0.00
2012-10-24,87.4,77.6,71.1,73.3,69.3,65.7,93,77,54,29.99,29.85,4,0,0,0.00
2012-10-25,82.5,76.4,71.2,73.7,71.0,68.7,94,84,71,29.88,29.73,4,0,0,0.01
2012-10-26,86.6,77.4,72.9,71.0,67.2,60.6,90,73,46,29.75,29.59,9,4,0,0.00
2012-10-27,83.8,76.0,70.7,66.8,64.1,59.6,79,67,45,29.73,29.59,13,7,0,0.00
2012-10-28,77.7,73.2,68.1,67.8,62.7,55.7,83,70,55,29.80,29.70,9,5,0,0.00
2012-10-29,70.8,65.5,58.5,57.0,51.5,45.9,83,62,43,29.90,29.79,9,5,0,0.00
2012-10-30,69.9,63.9,54.0,53.4,49.5,43.0,74,60,46,29.99,29.84,11,3,0,0.00
2012-10-31,75.1,64.6,56.8,58.8,55.9,53.1,94,75,50,30.07,29.99,5,1,0,0.00
2012-11-1,77.3,67.6,59.4,65.7,61.9,57.0,97,83,59,30.06,29.97,7,1,0,0.00
2012-11-2,80.2,69.0,61.6,64.3,57.8,47.7,98,71,34,30.11,30.01,5,1,0,0.00
2012-11-3,82.8,69.1,57.8,66.3,61.3,56.1,96,78,49,30.15,30.04,4,1,0,0.00
2012-11-4,81.7,69.3,60.7,66.7,61.7,54.8,98,80,41,30.12,29.99,4,0,0,0.01
2012-11-5,76.9,70.4,65.4,68.7,66.1,63.6,97,87,68,30.02,29.93,4,1,0,0.01
2012-11-6,74.3,67.7,63.7,68.7,65.0,62.0,97,91,75,29.95,29.84,5,1,0,0.43
2012-11-7,72.5,64.1,58.7,62.4,54.9,50.1,92,73,49,30.00,29.86,9,2,0,0.01
2012-11-8,71.9,61.2,53.4,54.4,45.0,36.8,83,58,30,30.17,29.99,6,1,0,0.00
2012-11-9,76.3,62.9,49.2,56.1,49.6,44.3,85,65,33,30.24,30.13,4,0,0,0.00
2012-11-10,77.0,66.4,57.0,59.1,55.5,51.9,85,69,48,30.29,30.18,5,0,0,0.00
2012-11-11,80.8,69.3,58.0,62.3,58.3,54.9,91,70,44,30.25,30.16,6,1,0,0.00
2012-11-12,79.9,71.5,63.5,68.0,64.3,61.1,93,79,63,30.21,30.12,11,2,0,0.00
2012-11-13,82.1,72.2,63.9,69.6,65.2,62.2,97,80,59,30.16,30.06,3,0,0,0.00
2012-11-14,83.8,72.2,63.9,69.7,65.5,62.4,97,81,56,30.15,30.05,3,0,0,0.00
2012-11-15,81.9,70.1,64.0,68.7,64.8,62.6,97,85,59,30.13,30.03,4,1,0,0.01
2012-11-16,70.4,64.9,61.6,63.9,60.7,58.6,92,86,76,30.14,30.06,5,0,0,0.00
2012-11-17,82.3,69.6,59.9,66.5,62.1,57.9,96,79,51,30.12,30.02,2,0,0,0.00
2012-11-18,76.3,67.9,62.0,66.2,62.2,58.5,95,83,67,30.15,30.07,2,0,0,0.01
2012-11-19,77.2,64.1,55.3,59.9,56.1,53.0,93,77,48,30.15,30.04,5,1,0,0.00
2012-11-20,74.5,63.9,57.9,62.8,58.3,54.4,92,83,63,30.09,29.96,6,2,0,0.00
2012-11-21,76.5,64.4,55.5,57.5,53.8,48.5,94,71,41,30.09,29.97,5,1,0,0.00
2012-11-22,76.4,62.0,51.5,53.9,45.3,36.4,90,59,24,30.17,30.05,6,1,0,0.00
2012-11-23,77.9,61.6,50.5,52.4,42.8,31.5,90,54,19,30.20,30.08,5,1,0,0.00
2012-11-24,76.0,62.5,51.2,60.7,54.8,49.3,97,78,47,30.13,30.01,6,1,0,0.00
2012-11-25,73.2,59.1,48.4,51.2,48.7,45.9,95,71,39,30.17,30.07,3,1,0,0.00
2012-11-26,80.0,64.0,50.1,62.1,56.0,47.5,97,77,49,30.21,30.10,5,0,0,0.00
2012-11-27,79.4,68.6,60.7,67.5,63.3,58.9,95,84,57,30.19,30.09,6,1,0,0.00
2012-11-28,76.7,67.6,61.3,66.1,62.8,57.7,98,86,62,30.22,30.11,2,0,0,0.00
2012-11-29,79.8,66.8,55.8,64.9,59.3,54.1,96,78,55,30.24,30.13,3,0,0,0.01
2012-11-30,78.0,67.8,60.2,63.7,59.7,57.2,92,76,61,30.22,30.12,8,1,0,0.00
2012-12-1,80.5,68.8,57.8,63.2,59.9,54.8,92,75,50,30.22,30.13,4,0,0,0.00
2012-12-2,81.6,70.2,61.2,66.8,62.8,59.4,98,79,48,30.24,30.13,3,0,0,0.32
2012-12-3,81.1,70.7,62.2,66.0,60.0,51.5,95,72,36,30.25,30.15,4,1,0,0.00
2012-12-4,78.8,69.0,61.2,64.1,59.3,56.0,94,72,54,30.26,30.15,3,0,0,0.00
2012-12-5,76.6,67.0,59.6,66.7,62.1,57.1,95,85,64,30.17,30.03,5,0,0,0.01
2012-12-6,79.9,70.0,60.6,67.4,64.4,59.7,98,84,62,30.04,29.91,3,0,0,0.01
2012-12-7,81.8,70.6,62.5,68.0,65.2,61.2,98,84,58,29.99,29.89,4,1,0,0.01
2012-12-8,82.3,71.4,66.8,70.5,67.5,65.3,97,89,61,30.04,29.94,5,1,0,0.54
2012-12-9,82.5,72.7,65.3,72.3,68.2,64.4,99,87,64,30.09,29.98,4,1,0,0.01
2012-12-10,83.3,74.7,67.0,75.7,71.3,65.3,97,90,75,30.02,29.88,9,3,0,0.01
2012-12-11,78.7,74.2,71.3,73.2,71.8,70.4,97,92,81,30.04,29.90,7,2,0,0.30
2012-12-12,78.6,74.3,69.4,75.0,72.6,67.9,98,94,87,30.08,29.98,10,2,0,0.35
2012-12-13,74.2,68.6,62.3,71.8,64.1,58.1,98,86,67,30.16,30.03,6,2,0,0.02
2012-12-14,77.7,66.4,58.6,65.0,60.6,55.4,94,82,62,30.18,30.06,2,0,0,0.00
2012-12-15,80.1,68.9,60.3,68.8,62.8,58.8,96,82,54,30.13,30.01,4,0,0,0.06
2012-12-16,80.1,70.5,61.7,68.4,65.3,60.8,99,85,63,30.06,29.94,5,1,0,0.01
2012-12-17,78.9,71.5,65.3,70.4,67.7,63.8,98,89,69,29.99,29.90,7,2,0,0.00
2012-12-18,79.7,71.6,64.9,72.8,68.3,63.1,99,90,73,30.03,29.90,8,2,0,0.01
2012-12-19,79.8,66.5,55.1,63.0,58.2,52.4,96,77,47,30.11,30.02,4,0,0,0.01
2012-12-20,80.5,71.5,62.7,69.2,65.4,56.9,95,82,60,30.09,29.95,8,3,0,0.00
2012-12-21,72.9,61.8,49.4,69.8,49.6,38.4,96,66,37,30.22,29.96,11,6,0,0.31
2012-12-22,68.0,53.2,43.9,44.5,36.8,25.0,81,58,22,30.31,30.20,5,1,0,0.00
2012-12-23,70.8,54.3,39.7,55.1,45.5,35.4,92,74,49,30.27,30.14,4,0,0,0.00
2012-12-24,73.4,62.4,52.1,59.5,55.7,50.1,97,80,58,30.15,29.98,5,1,0,0.00
2012-12-25,76.6,66.9,58.7,62.8,60.0,56.7,95,80,54,30.03,29.90,5,1,0,0.00
2012-12-26,77.4,68.5,59.9,72.0,64.2,54.4,96,87,78,30.01,29.83,10,4,0,0.00
2012-12-27,68.9,57.4,48.4,55.9,50.1,45.6,96,79,46,30.09,30.00,5,1,0,0.01
2012-12-28,71.9,61.9,48.5,68.4,58.0,45.1,97,87,69,30.08,29.94,6,0,0,0.05
2012-12-29,77.6,69.7,57.0,73.3,66.5,52.3,97,90,80,30.16,29.91,9,4,0,0.01
2012-12-30,63.0,53.6,43.3,52.5,44.7,38.2,87,73,48,30.33,30.16,7,1,0,0.00
2012-12-31,76.7,60.6,47.0,60.0,53.6,44.8,94,79,54,30.31,30.16,9,1,0,0.00
2013-1-1,78.5,67.5,58.0,63.6,60.5,56.3,96,80,56,30.21,30.04,7,2,0,0.00